Location: Unspecified
(52.4292°N, 19.3359°E)
Time: 00:50:05
(UTC+02:00)

SR - Pass Details

Date: 31 May 2024
Orbit: 580 x 858 km, 66.7° (Epoch: 12 June)

Event Time Altitude Azimuth Distance (km) Brightness Sun altitude
Rises 16:24:30 0° 205° (SSW) 3,191 ? 37.8°
Reaches altitude 10° 16:26:59 10° 202° (SSW) 2,225 ? 37.5°
Maximum altitude 16:31:56 59° 124° (ESE) 796 ? 36.7°
Drops below altitude 10° 16:36:32 10° 45° (NE) 2,063 ? 36.0°
Sets 16:38:46 0° 42° (NE) 2,939 ? 35.7°
